Back to catalog

AEHF 6

USA 298

AliveMilitaryGEO
NORAD 45465·PAYLOAD·🇺🇸 United States

Launched Mar 26, 2020 from Cape Canaveral Space Force Station

Loading…

TLE

FreshSource: Space-Track

Epoch: Sep 14, 2026, 12:44 UTC

1 45465U 20022B   26257.53119539 -.00000307  00000-0  00000-0 0  9999
2 45465   2.3632 302.4860 0042243  10.8907   9.1081  1.00270332 23917

Track AEHF 6 in real time with AllMySat

Download on the App Store